FW1969 Weather Reports


Display with metric or nautical units.
time (UTC)temp
F
wind
direction
speed
MPH
gust
MPH
rain 1hr
in
rain 24hr
in
rain mn
in
humidity
%
barometer
mb
20240227033046 67 169 9.0 19.0 0.00 0.01 0.01 43 1002.6
20240227031543 67 150 9.0 20.0 0.00 0.01 0.01 43 1002.7
20240227030043 67 159 9.0 18.0 0.00 0.01 0.01 43 1002.8
20240227024542 67 155 8.0 19.0 0.00 0.01 0.01 42 1002.6
20240227023040 67 181 7.0 18.0 0.00 0.01 0.01 41 1002.5
20240227021542 66 152 9.0 19.0 0.00 0.01 0.01 40 1002.4
20240227020039 66 157 7.0 13.0 0.00 0.01 0.01 38 1002.4
20240227014541 66 157 7.0 12.0 0.00 0.01 0.01 38 1002.4
20240227013046 66 150 6.0 10.0 0.00 0.01 0.01 38 1002.4
20240227011553 66 144 5.0 9.0 0.00 0.01 0.01 37 1002.5
20240227010036 67 145 4.0 10.0 0.00 0.01 0.01 35 1002.8
20240227004606 68 151 4.0 10.0 0.00 0.01 0.01 34 1002.9
20240227003033 69 159 6.0 8.0 0.00 0.01 0.01 33 1002.9
20240227001543 69 166 7.0 11.0 0.00 0.01 0.01 32 1002.9
20240227000031 70 161 5.0 12.0 0.00 0.01 0.01 30 1002.8
20240226234535 71 161 6.0 9.0 0.00 0.01 0.01 28 1002.8
20240226233029 71 168 5.0 9.0 0.00 0.01 0.01 27 1002.8
20240226231529 72 196 6.0 13.0 0.00 0.01 0.01 25 1002.9
20240226230034 73 161 4.0 11.0 0.00 0.01 0.01 22 1002.8
20240226224536 74 176 4.0 8.0 0.00 0.01 0.01 18 1002.8
20240226223036 74 161 3.0 10.0 0.00 0.01 0.01 17 1003.0
20240226221525 74 186 7.0 13.0 0.00 0.01 0.01 16 1003.2
20240226220027 75 202 6.0 18.0 0.00 0.01 0.01 15 1003.4
20240226214530 75 187 7.0 11.0 0.00 0.01 0.01 15 1003.6
20240226213024 75 193 5.0 12.0 0.00 0.01 0.01 16 1003.8
20240226211518 75 202 5.0 11.0 0.00 0.01 0.01 16 1003.8
20240226210019 75 176 4.0 12.0 0.00 0.01 0.01 17 1003.9
20240226204515 75 209 7.0 14.0 0.00 0.01 0.01 18 1004.1
20240226203012 75 228 4.0 11.0 0.00 0.01 0.01 19 1004.5
20240226201511 75 219 7.0 11.0 0.00 0.01 0.01 17 1004.6
20240226200008 73 158 9.0 13.0 0.00 0.01 0.01 21 1004.7
20240226194508 73 198 4.0 11.0 0.00 0.01 0.01 23 1004.9
20240226193003 73 198 6.0 14.0 0.00 0.01 0.01 24 1005.3
20240226191606 72 175 6.0 10.0 0.00 0.01 0.01 25 1005.5
20240226190101 72 167 4.0 11.0 0.00 0.01 0.01 25 1005.8
20240226184630 71 160 6.0 10.0 0.00 0.01 0.01 26 1005.9
20240226183053 71 205 7.0 14.0 0.00 0.01 0.01 27 1006.2
20240226181559 70 260 5.0 10.0 0.00 0.01 0.01 27 1006.4
20240226180050 70 227 4.0 9.0 0.00 0.01 0.01 29 1006.8
20240226174546 69 209 5.0 10.0 0.00 0.01 0.01 29 1007.1
20240226173045 68 182 5.0 14.0 0.00 0.01 0.01 30 1007.2
20240226171538 67 234 4.0 13.0 0.00 0.01 0.01 31 1007.4
20240226170035 66 217 6.0 14.0 0.00 0.01 0.01 32 1007.6
20240226164531 65 228 7.0 13.0 0.00 0.01 0.01 33 1007.7
20240226163026 64 211 7.0 14.0 0.00 0.01 0.01 34 1007.8
20240226161524 64 215 7.0 11.0 0.00 0.01 0.01 34 1008.0
20240226160019 63 202 7.0 15.0 0.00 0.01 0.01 35 1008.0
20240226154516 63 227 6.0 11.0 0.00 0.01 0.01 35 1007.9
20240226151514 61 187 5.0 10.0 0.00 0.01 0.01 36 1007.8
20240226150003 60 242 5.0 12.0 0.00 0.01 0.01 37 1007.9
20240226144634 59 234 4.0 8.0 0.00 0.01 0.01 37 1007.9
20240226143055 58 180 4.0 9.0 0.00 0.01 0.01 37 1007.8
20240226141551 57 208 3.0 9.0 0.00 0.01 0.01 39 1007.9
20240226140056 55 138 2.0 5.0 0.00 0.01 0.01 43 1007.9
20240226134547 53 136 2.0 5.0 0.00 0.01 0.01 44 1007.7
20240226133045 51 135 3.0 5.0 0.00 0.01 0.01 46 1007.7
20240226131536 50 134 3.0 5.0 0.00 0.01 0.01 48 1007.8
20240226130033 49 134 3.0 5.0 0.00 0.01 0.01 48 1007.6
20240226124530 49 134 3.0 5.0 0.00 0.01 0.01 48 1007.5
20240226123029 49 134 3.0 7.0 0.00 0.01 0.01 48 1007.3
20240226121524 49 134 3.0 7.0 0.00 0.01 0.01 48 1007.2
20240226120027 49 135 4.0 7.0 0.00 0.01 0.01 48 1007.1
20240226114526 50 135 3.0 5.0 0.00 0.01 0.01 48 1007.1
20240226113022 50 135 3.0 5.0 0.00 0.01 0.01 48 1007.1
20240226111520 50 135 3.0 8.0 0.00 0.01 0.01 48 1007.1
20240226110022 50 136 3.0 5.0 0.00 0.01 0.01 48 1007.1
20240226104521 50 136 3.0 5.0 0.00 0.01 0.01 48 1007.0
20240226103018 50 136 3.0 7.0 0.00 0.01 0.01 49 1007.0
20240226101522 50 137 4.0 8.0 0.00 0.01 0.01 49 1006.9
20240226100023 50 140 4.0 8.0 0.00 0.01 0.01 49 1006.9
20240226094513 51 148 4.0 7.0 0.00 0.01 0.01 48 1007.0
20240226093009 52 151 3.0 9.0 0.00 0.01 0.01 47 1007.0
20240226091508 52 156 4.0 8.0 0.00 0.01 0.01 46 1007.1
20240226090007 53 168 5.0 9.0 0.00 0.01 0.01 44 1007.2
20240226084506 54 157 6.0 12.0 0.00 0.01 0.01 42 1007.3
20240226083003 54 169 7.0 12.0 0.01 0.01 0.01 42 1007.5
20240226081501 52 172 5.0 10.0 0.01 0.01 0.01 46 1007.5
20240226080105 52 147 7.0 11.0 0.01 0.01 0.01 45 1007.8
20240226074558 53 144 5.0 9.0 0.01 0.01 0.01 45 1008.0
20240226073102 53 151 4.0 9.0 0.00 0.00 0.00 44 1008.1
20240226071553 54 184 4.0 11.0 0.00 0.00 0.00 42 1008.5
20240226070050 53 171 5.0 10.0 0.00 0.00 0.00 40 1008.0
20240226064549 53 171 3.0 7.0 0.00 0.00 0.00 38 1008.3
20240226063055 53 172 3.0 7.0 0.00 0.00 0.00 38 1008.1
20240226061544 53 179 3.0 6.0 0.00 0.00 0.00 38 1008.2
20240226060045 52 180 4.0 7.0 0.00 0.00 0.00 38 1008.4
20240226054543 52 175 2.0 6.0 0.00 0.00 0.00 38 1008.5
20240226053051 52 174 3.0 6.0 0.00 0.00 0.00 38 1008.5
20240226051543 52 180 2.0 6.0 0.00 0.00 0.00 38 1008.5
20240226050036 52 180 3.0 6.0 0.00 0.00 0.00 37 1008.6
20240226044541 53 178 4.0 8.0 0.00 0.00 0.00 37 1008.5
20240226043039 53 173 4.0 7.0 0.00 0.00 0.00 37 1008.5
20240226041540 52 168 5.0 10.0 0.00 0.00 0.00 37 1008.4
20240226040034 52 164 4.0 8.0 0.00 0.00 0.00 36 1008.5
20240226034534 52 162 5.0 7.0 0.00 0.00 0.00 36 1008.2